Location: *
(46.4000°N, 12.6667°E)
Time: 02:41:37
(UTC+00:00)

ISS - Pass Details

Date: 03 December 2021
Orbit: 413 x 422 km, 51.6° (Epoch: 22 January)

Event Time Altitude Azimuth Distance (km) Brightness Sun altitude
Rises 16:01:26 0° 292° (WNW) 2,386 0.8 -6.5°
Reaches altitude 10° 16:03:39 10° 301° (WNW) 1,518 -0.4 -6.9°
Maximum altitude 16:06:51 36° 10° (N) 688 -2.9 -7.4°
Drops below altitude 10° 16:10:01 10° 79° (E) 1,510 -1.6 -7.9°
Enters shadow 16:10:02 10° 79° (E) 1,518 -1.6 -7.9°
